EST,Max TemperatureF,Mean TemperatureF,Min TemperatureF,Max Dew PointF,MeanDew PointF,Min DewpointF,Max Humidity, Mean Humidity, Min Humidity, Max Sea Level PressureIn, Mean Sea Level PressureIn, Min Sea Level PressureIn, Max VisibilityMiles, Mean VisibilityMiles, Min VisibilityMiles, Max Wind SpeedMPH, Mean Wind SpeedMPH, Max Gust SpeedMPH,PrecipitationIn, CloudCover, Events, WindDirDegrees
2011-11-1,52,38,24,32,28,22,96,85,38,30.41,30.36,30.32,10,6,0,6,0,,0.00,3,Fog,169
2011-11-2,57,38,19,35,27,18,92,77,37,30.43,30.32,30.20,10,10,8,5,0,,0.00,0,,235
2011-11-3,60,42,26,40,32,24,96,74,41,30.19,30.01,29.88,10,9,2,10,1,22,0.00,2,,311
2011-11-4,41,36,30,35,26,22,79,64,49,30.29,30.07,29.91,10,10,10,16,8,25,0.00,6,,329
2011-11-5,46,34,21,26,21,18,92,76,32,30.48,30.41,30.30,10,10,10,8,1,,0.00,1,,330
2011-11-6,57,34,14,28,17,10,92,69,17,30.48,30.39,30.30,10,10,10,5,0,,0.00,0,,345
2011-11-7,62,39,16,33,24,13,92,70,21,30.31,30.22,30.14,10,10,6,5,0,,0.00,0,,320
2011-11-8,62,45,28,39,32,26,96,71,26,30.27,30.22,30.17,10,8,1,8,2,,0.00,2,,280
2011-11-9,68,52,34,47,39,32,100,80,47,30.24,30.09,29.97,10,7,0,14,2,17,0.00,3,Fog,152
2011-11-10,66,48,30,52,41,28,100,87,45,30.00,29.79,29.60,10,5,0,16,3,22,0.88,5,Fog-Rain,340
2011-11-11,42,37,32,39,31,22,93,80,63,29.73,29.55,29.45,10,8,2,16,5,28,0.07,7,Rain-Snow,297
2011-11-12,46,39,30,28,24,20,88,57,39,30.04,29.91,29.77,10,10,10,12,5,22,0.00,5,,231
2011-11-13,57,40,23,36,30,21,96,75,36,30.12,30.00,29.85,10,10,7,15,2,21,0.00,1,,160
2011-11-14,64,50,36,46,41,34,93,69,45,29.82,29.73,29.60,10,10,10,13,3,26,0.00,3,Rain,225
2011-11-15,59,44,28,50,40,26,96,73,45,29.96,29.74,29.57,10,10,9,14,6,28,0.00,3,Rain,271
2011-11-16,57,40,23,45,35,20,100,84,51,29.97,29.83,29.68,10,9,2,13,1,,0.10,5,Rain,159
2011-11-17,46,39,32,42,27,21,93,70,49,29.83,29.77,29.70,10,7,1,10,4,18,0.02,5,Snow,301
2011-11-18,34,28,21,25,20,16,85,69,48,30.29,30.10,29.83,10,9,2,13,6,25,0.00,4,Snow,287
2011-11-19,50,34,19,24,19,12,89,61,23,30.27,30.19,30.09,10,10,10,6,1,,0.00,4,,89
2011-11-20,55,44,32,45,36,24,80,68,44,30.13,29.98,29.85,10,10,9,13,5,21,0.00,7,Rain,308
2011-11-21,37,26,14,28,16,9,92,65,31,30.40,30.32,30.16,10,10,10,12,5,18,0.00,2,,336
2011-11-22,39,24,9,20,13,6,88,68,30,30.45,30.38,30.25,10,10,10,5,1,,0.00,1,,323
2011-11-23,30,22,12,28,24,8,93,87,69,30.20,29.94,29.79,10,4,0,12,2,,0.60,7,Fog-Snow,357
2011-11-24,30,18,6,28,16,1,96,87,79,30.16,30.08,29.98,10,8,0,4,0,,0.00,7,Fog,174
2011-11-25,45,30,14,37,22,10,100,91,65,30.09,29.99,29.91,10,2,0,5,0,,0.00,3,Fog,340
2011-11-26,42,32,21,37,31,19,100,93,82,30.25,30.16,29.96,10,7,0,0,0,,0.00,4,Fog,-1
2011-11-27,44,34,23,39,30,21,100,90,79,30.27,30.18,30.02,10,5,0,16,2,22,0.00,5,Fog,161
2011-11-28,55,44,33,50,40,33,100,91,69,30.14,30.02,29.95,10,6,1,10,1,,0.05,7,Rain,293
2011-11-29,57,47,37,52,44,37,100,88,77,30.12,30.01,29.76,10,9,1,22,2,30,0.00,7,Rain,155
2011-11-30,57,48,39,54,44,29,96,76,50,29.79,29.59,29.48,10,8,2,14,8,22,0.75,7,Rain,173